Tracking 19846 objects as of 20-Sep-2019
HD Live streaming from Space Station
objects crossing your sky now

SL-23 DEB


SL-23 DEB is no longer on orbit


NORAD ID: 37761
Int'l Code: 2011-037G
Perigee: N/A
Apogee: N/A
Inclination: N/A
Period: N/A
Semi major axis: N/A
RCS: N/A
Launch date: July 18, 2011
Source: Commonwealth of Independent States (former USSR) (CIS)
Launch site: TYURATAM MISSILE AND SPACE COMPLEX (TTMTR)
Decay date: 2011-08-03

Note: This is SATELLITE DEBRIS
aabbcc
Your satellite tracking list
Your tracking list is empty




NASA's NSSDC Master Catalog

Two Line Element Set (TLE):
1 37761U 11037G   11215.23938778 +.22541261 +11677-4 +61476-3 0  9999
2 37761 051.3563 259.5512 0049078 145.9668 207.4301 16.38589309002332
Source of the keplerian elements: AFSPC